Regional Weather Roundup
Issued by NWS

Home | Current Version | Previous Version | Text Only | Print | Product List | Glossary Off
Versions: 1 2 3 4 5 6 7 8 9 10 11 12 13 14 15 16 17 18 19 20 21 22 23 24 25 26 27 28 29 30 31 32 33 34 35 36 37 38 39 40 41 42 43 44 45 46 47 48 49 50

000
ASUS43 KMKX 032000
RWRWI

WISCONSIN REGIONAL WEATHER ROUNDUP
NATIONAL WEATHER SERVICE MILWAUKEE/SULLIVAN WI
300 PM CDT FRI JUL 03 2015

NOTE: "FAIR" INDICATES FEW OR NO CLOUDS BELOW 12,000 FEET WITH NO
SIGNIFICANT WEATHER AND/OR OBSTRUCTIONS TO VISIBILITY.

WIZ001-002-006>008-014>016-023>028-032100-
NORTHWEST WISCONSIN

CITY           SKY/WX    TMP DP  RH WIND       PRES   REMARKS
SUPERIOR ARPT  MOSUNNY   79  65  62 W6        29.86S HX  81
ASHLAND        SUNNY     79  65  62 SW9       29.87S HX  81
HAYWARD        MOSUNNY   77  60  55 SW10      29.90F
SIREN          PTSUNNY   77  60  54 SW9       29.91F
CUMBERLAND     PTSUNNY   73  55  53 W9        29.93F
RICE LAKE      PTSUNNY   76  57  51 SW9       29.94S
CHETEK         PTSUNNY   75  58  55 SW7       29.93F
LADYSMITH      MOSUNNY   76  57  50 SW10      29.94F
EAU CLAIRE     NOT AVBL
MENOMONIE      SUNNY     77  56  49 W5        29.94S
NEW RICHMOND   MOSUNNY   76  56  48 SW10      29.94F
OSCEOLA        MOSUNNY   78  59  50 W10       29.95F HX  80
$$

WIZ003>005-009-010-017-018-032100-
NORTH CENTRAL WISCONSIN

CITY           SKY/WX    TMP DP  RH WIND       PRES   REMARKS
MANITOWISH WTR MOSUNNY   72  58  63 W6        29.91S
ARBOR VITAE    PTSUNNY   72  56  56 SW9       29.91F
WOODRUFF       PTSUNNY   72  56  56 SW9       29.91F
RHINELANDER    PTSUNNY   74  55  51 W13       29.93F
EAGLE RIVER    PTSUNNY   73  54  49 SW16      29.91S
LAND O LAKES   PTSUNNY   73  55  54 SW5       29.91S
PHILLIPS       MOSUNNY   73  58  57 SW10G16   29.92S
TOMAHAWK       PTSUNNY   73  53  48 W9        29.93F
MEDFORD        SUNNY     73  55  52 SW7G17    29.94F
MERRILL        MOSUNNY   75  58  55 W6G16     29.93F
$$

WIZ029-030-035-036-043>047-032100-
CENTRAL WISCONSIN

CITY           SKY/WX    TMP DP  RH WIND       PRES   REMARKS
WAUSAU         MOSUNNY   75  54  47 SW12      29.92F
MOSINEE        MOSUNNY   73  57  56 SW9       29.95F
MARSHFIELD     MOSUNNY   75  56  51 W8        29.94F
STEVENS POINT  MOSUNNY   72  53  51 SW6       29.95F
WAUPACA        PTSUNNY   78  52  39 S3        29.95S
WAUTOMA        NOT AVBL
WISC RAPIDS    MOSUNNY   76  53  44 W7        29.96F
CAMP DOUGLAS   MOSUNNY   77  58  52 SW6       29.95F
$$

WIZ011>013-019>022-031-037>040-048>050-032100-
NORTHEAST WISCONSIN

CITY           SKY/WX    TMP DP  RH WIND       PRES   REMARKS
ANTIGO         PTSUNNY   72  57  60 SW10      29.94F
SHAWANO        PTSUNNY   76  51  40 W8        29.93F
OCONTO         MOSUNNY   76  54  47 SW10      29.92S
STURGEON BAY   SUNNY     73  55  53 SW12      29.94F
GREEN BAY      MOSUNNY   76  55  48 SW8       29.93F
MANITOWOC      NOT AVBL
APPLETON       PTSUNNY   73  52  46 SW8       29.96S
CLINTONVILLE   PTSUNNY   75  50  41 SW10      29.93F
OSHKOSH        SUNNY     75  53  46 SW8       29.94F
$$

WIZ032>034-041-042-053>061-032100-
SOUTHWEST WISCONSIN

CITY           SKY/WX    TMP DP  RH WIND       PRES   REMARKS
LA CROSSE      MOSUNNY   78  59  51 S5        29.94F
SPARTA         PTSUNNY   75  55  48 W6        29.96F
VIROQUA        MOSUNNY   74  55  51 W5        29.98S
BOSCOBEL       SUNNY     77  55  46 SW5       29.96F
PRAIRIE DU CHI SUNNY     74  52  45 CALM      29.96F
PLATTEVILLE    SUNNY     74  51  45 W3        29.98S
$$

WIZ056-057-062-063-064-067-068-032100-
SOUTH CENTRAL WISCONSIN

CITY           SKY/WX    TMP DP  RH WIND       PRES   REMARKS
REEDSBURG      SUNNY     74  56  53 SW5       29.96F
BARABOO/DELLS  SUNNY     74  53  48 S6        29.96F
LONE ROCK      NOT AVBL
MINERAL POINT  SUNNY     73  46  38 CALM      29.98F
MADISON        MOSUNNY   75  51  43 VRB3      29.95F
MIDDLETON      SUNNY     76  47  36 W3        29.97F
WATERTOWN      SUNNY     74  56  53 S5        29.96F
MONROE         SUNNY     73  55  53 CALM      29.97F
JANESVILLE     MOSUNNY   75  54  46 CALM      29.95F
$$

WIZ051-052-058>065-066-070>072-032100-
SOUTHEAST WISCONSIN

CITY           SKY/WX    TMP DP  RH WIND       PRES   REMARKS
MILWAUKEE      PTSUNNY   71  51  49 E10       29.96F
WAUKESHA       MOSUNNY   72  52  49 SE7       29.96F
MILWAUKEE/TIMM MOSUNNY   75  43  31 E6        29.96F
RACINE         SUNNY     70  55  59 SE8       29.98F
BURLINGTON     MOSUNNY   74  55  50 S3        29.96F
KENOSHA        MOSUNNY   74  54  49 E10       29.96F
FOND DU LAC    SUNNY     76  55  48 SW5       29.95F
SHEBOYGAN      SUNNY     73  51  46 SE10      29.95F
WEST BEND      CLOUDY    73  52  46 S9        29.95F
JUNEAU         SUNNY     72  54  52 SW3       29.97F
$$

LSZ147-162-032100-
LAKE SUPERIOR

STATION/POSITION TIME  TEMP    WIND        PRES    WAVE
                       AIR SEA DIR/SP/G            HT/PER
                 (UTC) (F)     (DEG/KT/KT) (MB)    (FT/S)
W MID LAKE BUOY  1850   47 39  220/ 12/ 12 1010.3F   1/ 4
DEVILS ISLAND    1900   67     230/  9/ 12 1010.6F
SAXON HARBOR     1900   76     230/  3/ 12 1011.2
$$

LMZ867-665-643>646-032100-
LAKE MICHIGAN

STATION/POSITION TIME  TEMP    WIND        PRES    WAVE
                       AIR SEA DIR/SP/G            HT/PER
                 (UTC) (F)     (DEG/KT/KT) (MB)    (FT/S)
CHAMBERS ISLAND  1900   69     180/  9/ 16 1012.9F
S GREEN BAY BUOY 1930   70 68  200/ 10/ 14 1014.8F
N MID LAKE BUOY  1850   51 44  190/ 14/ 14 1013.2F   1/ 3
NORTHPORT PIER   1900   68     150/  6/  9 1012.9F
SISTER BAY       1929   75     220/ 13/ 14   N/A
ALGOMA LAKESHORE 1925          210/ 11/ 12   N/A
KEWAUNEE LAKESHO 1900   62     190/ 11/ 13 1013.5F
SHEBOYGAN LAKESH 1900   60     170/ 13/ 14 1014.9F
PORT WASHINGTON  1900   65     170/  6/  7 1015.6F
ATWATER BUOY     1900   61 61  120/  6/  8 1016.4F
MILWAUKEE LAKESH 1900   61     130/  5/  6   N/A
KENOSHA   LAKESH 1900   65     120/  5/  6 1014.9F
$$

TC  - TEMPERATURE IN CELSIUS
VSB - VISIBILITY IN STATUTE MILES
WCI - WIND CHILL INDEX
HX  - HEAT INDEX




USA.gov is the U.S. government's official web portal to all federal, state and local government web resources and services.